| time (UTC) | temp C | wind direction | speed KPH | gust KPH | rain 1hr cm | rain 24hr cm | rain mn cm | humidity % | barometer mb |
| 20260504150947 | 17 | 358 | 1.6 | 14.5 | 0.00 | 0.00 | 0.00 | 38 | 1012.9 |
| 20260504150444 | 17 | 234 | 11.3 | 14.5 | 0.00 | 0.00 | 0.00 | 37 | 1013.0 |
| 20260504140910 | 16 | 268 | 12.9 | 22.5 | 0.00 | 0.00 | 0.00 | 38 | 1013.2 |
| 20260504140406 | 16 | 175 | 12.9 | 16.1 | 0.00 | 0.00 | 0.00 | 38 | 1013.4 |
| 20260504130332 | 13 | 189 | 3.2 | 11.3 | 0.00 | 0.00 | 0.00 | 51 | 1014.0 |
| 20260504120255 | 7 | 18 | 0.0 | 0.0 | 0.00 | 0.00 | 0.00 | 76 | 1014.4 |
| 20260504110219 | 1 | 17 | 0.0 | 0.0 | 0.00 | 0.00 | 0.00 | 96 | 1014.5 |
| 20260504100137 | 0 | 13 | 0.0 | 0.0 | 0.00 | 0.00 | 0.00 | 96 | 1014.6 |
| 20260504081530 | 0 | 18 | 0.0 | 0.0 | 0.00 | 0.00 | 0.00 | 93 | 1013.8 |
| 20260504081025 | 0 | 18 | 0.0 | 0.0 | 0.00 | 0.00 | 0.00 | 93 | 1013.8 |
| 20260504080522 | 0 | 18 | 0.0 | 0.0 | 0.00 | 0.00 | 0.00 | 93 | 1013.7 |
| 20260504050334 | 2 | 19 | 0.0 | 0.0 | 0.00 | 0.00 | 0.00 | 82 | 1013.7 |
| 20260504045832 | 2 | 19 | 0.0 | 0.0 | 0.00 | 0.00 | 0.00 | 82 | 1013.7 |
| 20260504045326 | 2 | 19 | 0.0 | 0.0 | 0.00 | 0.00 | 0.00 | 81 | 1013.7 |
| 20260504044823 | 2 | 19 | 0.0 | 0.0 | 0.00 | 0.00 | 0.00 | 81 | 1013.9 |
| 20260504044321 | 2 | 19 | 0.0 | 0.0 | 0.00 | 0.00 | 0.00 | 81 | 1013.6 |
| 20260504043818 | 2 | 19 | 0.0 | 0.0 | 0.00 | 0.00 | 0.00 | 81 | 1013.6 |
| 20260504043315 | 2 | 17 | 0.0 | 0.0 | 0.00 | 0.00 | 0.00 | 80 | 1013.8 |
| 20260504042812 | 2 | 16 | 0.0 | 0.0 | 0.00 | 0.00 | 0.00 | 80 | 1013.7 |
| 20260504042309 | 2 | 16 | 0.0 | 0.0 | 0.00 | 0.00 | 0.00 | 80 | 1013.7 |
| 20260504041805 | 2 | 16 | 0.0 | 0.0 | 0.00 | 0.00 | 0.00 | 80 | 1013.7 |
| 20260504041301 | 2 | 16 | 0.0 | 0.0 | 0.00 | 0.00 | 0.00 | 79 | 1013.5 |
| 20260504040758 | 2 | 16 | 0.0 | 0.0 | 0.00 | 0.00 | 0.00 | 78 | 1013.4 |
| 20260504040255 | 2 | 16 | 0.0 | 0.0 | 0.00 | 0.00 | 0.00 | 77 | 1013.5 |
| 20260504035750 | 2 | 16 | 0.0 | 0.0 | 0.00 | 0.00 | 0.00 | 76 | 1013.3 |
| 20260504035248 | 2 | 16 | 0.0 | 0.0 | 0.00 | 0.00 | 0.00 | 77 | 1013.4 |
| 20260504034745 | 2 | 16 | 0.0 | 0.0 | 0.00 | 0.00 | 0.00 | 76 | 1013.4 |
| 20260504034243 | 2 | 16 | 0.0 | 0.0 | 0.00 | 0.00 | 0.00 | 76 | 1013.6 |
| 20260504033740 | 2 | 16 | 0.0 | 0.0 | 0.00 | 0.00 | 0.00 | 75 | 1013.5 |
| 20260504033238 | 2 | 16 | 0.0 | 0.0 | 0.00 | 0.00 | 0.00 | 74 | 1013.4 |
| 20260504032734 | 3 | 16 | 0.0 | 0.0 | 0.00 | 0.00 | 0.00 | 73 | 1013.3 |
| 20260504032231 | 3 | 16 | 0.0 | 0.0 | 0.00 | 0.00 | 0.00 | 72 | 1013.3 |
| 20260504031728 | 3 | 16 | 0.0 | 0.0 | 0.00 | 0.00 | 0.00 | 72 | 1013.3 |
| 20260504031226 | 3 | 16 | 0.0 | 0.0 | 0.00 | 0.00 | 0.00 | 71 | 1013.5 |
| 20260504030721 | 3 | 16 | 0.0 | 0.0 | 0.00 | 0.00 | 0.00 | 69 | 1013.2 |
| 20260504030219 | 3 | 16 | 0.0 | 0.0 | 0.00 | 0.00 | 0.00 | 69 | 1013.2 |
| 20260504025715 | 3 | 16 | 0.0 | 0.0 | 0.00 | 0.00 | 0.00 | 69 | 1013.5 |
| 20260504025212 | 3 | 16 | 0.0 | 0.0 | 0.00 | 0.00 | 0.00 | 69 | 1013.1 |
| 20260504024709 | 4 | 16 | 0.0 | 0.0 | 0.00 | 0.00 | 0.00 | 68 | 1013.2 |
| 20260504024205 | 4 | 16 | 0.0 | 0.0 | 0.00 | 0.00 | 0.00 | 67 | 1013.2 |
| 20260504023702 | 5 | 16 | 0.0 | 0.0 | 0.00 | 0.00 | 0.00 | 66 | 1013.1 |
| 20260504023158 | 5 | 16 | 0.0 | 0.0 | 0.00 | 0.00 | 0.00 | 66 | 1013.1 |
| 20260504022654 | 4 | 16 | 0.0 | 0.0 | 0.00 | 0.00 | 0.00 | 66 | 1013.1 |
| 20260504022150 | 4 | 16 | 0.0 | 0.0 | 0.00 | 0.00 | 0.00 | 65 | 1013.1 |
| 20260504021649 | 5 | 16 | 0.0 | 0.0 | 0.00 | 0.00 | 0.00 | 63 | 1013.3 |
| 20260504021145 | 5 | 16 | 0.0 | 0.0 | 0.00 | 0.00 | 0.00 | 63 | 1013.2 |
| 20260504020642 | 5 | 16 | 0.0 | 0.0 | 0.00 | 0.00 | 0.00 | 63 | 1013.1 |
| 20260504020138 | 5 | 16 | 0.0 | 0.0 | 0.00 | 0.00 | 0.00 | 62 | 1013.3 |
| 20260504015635 | 5 | 16 | 0.0 | 0.0 | 0.00 | 0.00 | 0.00 | 60 | 1013.0 |
| 20260504015131 | 5 | 16 | 0.0 | 0.0 | 0.00 | 0.00 | 0.00 | 60 | 1013.1 |
| 20260504014627 | 5 | 16 | 0.0 | 1.6 | 0.00 | 0.00 | 0.00 | 60 | 1013.0 |
| 20260504014124 | 6 | 16 | 0.0 | 0.0 | 0.00 | 0.00 | 0.00 | 58 | 1012.9 |
| 20260504013622 | 6 | 16 | 0.0 | 0.0 | 0.00 | 0.00 | 0.00 | 57 | 1012.8 |
| 20260504013119 | 6 | 16 | 0.0 | 0.0 | 0.00 | 0.00 | 0.00 | 55 | 1012.8 |
| 20260504012616 | 6 | 16 | 0.0 | 0.0 | 0.00 | 0.00 | 0.00 | 54 | 1012.9 |
| 20260504012114 | 7 | 16 | 0.0 | 0.0 | 0.00 | 0.00 | 0.00 | 53 | 1012.8 |
| 20260504011610 | 7 | 16 | 0.0 | 0.0 | 0.00 | 0.00 | 0.00 | 53 | 1012.9 |
| 20260504011107 | 7 | 16 | 0.0 | 0.0 | 0.00 | 0.00 | 0.00 | 51 | 1012.4 |
| 20260504010602 | 7 | 16 | 0.0 | 0.0 | 0.00 | 0.00 | 0.00 | 51 | 1012.4 |
| 20260504010059 | 8 | 16 | 0.0 | 0.0 | 0.00 | 0.00 | 0.00 | 51 | 1012.3 |
| 20260504005555 | 8 | 16 | 0.0 | 0.0 | 0.00 | 0.00 | 0.00 | 50 | 1012.3 |
| 20260504005053 | 8 | 16 | 0.0 | 0.0 | 0.00 | 0.00 | 0.00 | 48 | 1012.1 |
| 20260504004551 | 8 | 16 | 0.0 | 0.0 | 0.00 | 0.00 | 0.00 | 48 | 1012.2 |
| 20260504004047 | 8 | 16 | 0.0 | 0.0 | 0.00 | 0.00 | 0.00 | 47 | 1012.1 |
| 20260504003543 | 9 | 16 | 0.0 | 0.0 | 0.00 | 0.00 | 0.00 | 47 | 1012.2 |
| 20260504003040 | 9 | 16 | 0.0 | 0.0 | 0.00 | 0.00 | 0.00 | 45 | 1012.0 |
| 20260504002537 | 10 | 16 | 0.0 | 0.0 | 0.00 | 0.00 | 0.00 | 44 | 1012.0 |
| 20260504002035 | 10 | 16 | 0.0 | 0.0 | 0.00 | 0.00 | 0.00 | 43 | 1011.8 |
| 20260504001533 | 10 | 16 | 0.0 | 1.6 | 0.00 | 0.00 | 0.00 | 42 | 1011.8 |
| 20260504001028 | 10 | 16 | 0.0 | 0.0 | 0.00 | 0.00 | 0.00 | 43 | 1011.6 |
| 20260504000526 | 10 | 16 | 0.0 | 0.0 | 0.00 | 0.00 | 0.00 | 43 | 1011.7 |
| 20260504000023 | 10 | 16 | 0.0 | 0.0 | 0.00 | 0.00 | 0.00 | 41 | 1011.5 |
| 20260503235521 | 10 | 13 | 0.0 | 0.0 | 0.00 | 0.00 | 0.00 | 42 | 1011.5 |
| 20260503235018 | 11 | 12 | 0.0 | 0.0 | 0.00 | 0.00 | 0.00 | 41 | 1011.5 |
| 20260503234515 | 11 | 11 | 0.0 | 0.0 | 0.00 | 0.00 | 0.00 | 37 | 1011.4 |
| 20260503234014 | 11 | 6 | 0.0 | 3.2 | 0.00 | 0.00 | 0.00 | 35 | 1011.3 |
| 20260503233510 | 11 | 17 | 0.0 | 1.6 | 0.00 | 0.00 | 0.00 | 36 | 1011.2 |
| 20260503233006 | 11 | 16 | 1.6 | 1.6 | 0.00 | 0.00 | 0.00 | 38 | 1011.3 |
| 20260503232503 | 11 | 13 | 0.0 | 1.6 | 0.00 | 0.00 | 0.00 | 34 | 1011.1 |
| 20260503232001 | 11 | 291 | 6.4 | 11.3 | 0.00 | 0.00 | 0.00 | 33 | 1011.1 |
| 20260503231458 | 12 | 14 | 0.0 | 1.6 | 0.00 | 0.00 | 0.00 | 35 | 1011.3 |
| 20260503230954 | 12 | 11 | 0.0 | 4.8 | 0.00 | 0.00 | 0.00 | 34 | 1011.0 |
| 20260503230451 | 12 | 11 | 0.0 | 4.8 | 0.00 | 0.00 | 0.00 | 33 | 1010.9 |
| 20260503225949 | 12 | 288 | 3.2 | 4.8 | 0.00 | 0.00 | 0.00 | 34 | 1011.0 |
| 20260503225445 | 13 | 39 | 1.6 | 4.8 | 0.00 | 0.00 | 0.00 | 34 | 1011.1 |
| 20260503224941 | 13 | 11 | 0.0 | 3.2 | 0.00 | 0.00 | 0.00 | 33 | 1011.2 |
| 20260503224438 | 13 | 2 | 0.0 | 4.8 | 0.00 | 0.00 | 0.00 | 33 | 1011.0 |
| 20260503223936 | 13 | 8 | 3.2 | 4.8 | 0.00 | 0.00 | 0.00 | 32 | 1011.0 |
| 20260503223433 | 13 | 301 | 1.6 | 8.0 | 0.00 | 0.00 | 0.00 | 32 | 1011.1 |
| 20260503222928 | 13 | 43 | 1.6 | 4.8 | 0.00 | 0.00 | 0.00 | 32 | 1011.0 |
| 20260503222427 | 13 | 266 | 4.8 | 9.7 | 0.00 | 0.00 | 0.00 | 32 | 1010.9 |
| 20260503221925 | 13 | 257 | 6.4 | 14.5 | 0.00 | 0.00 | 0.00 | 33 | 1011.0 |
| 20260503221423 | 13 | 29 | 4.8 | 8.0 | 0.00 | 0.00 | 0.00 | 33 | 1011.0 |
| 20260503220920 | 13 | 229 | 4.8 | 11.3 | 0.00 | 0.00 | 0.00 | 33 | 1011.0 |
| 20260503220416 | 13 | 40 | 4.8 | 11.3 | 0.00 | 0.00 | 0.00 | 34 | 1011.0 |
| 20260503215913 | 13 | 27 | 9.7 | 14.5 | 0.00 | 0.00 | 0.00 | 33 | 1011.0 |
| 20260503215410 | 13 | 359 | 1.6 | 14.5 | 0.00 | 0.00 | 0.00 | 35 | 1011.1 |
| 20260503214908 | 13 | 64 | 1.6 | 12.9 | 0.00 | 0.00 | 0.00 | 33 | 1010.9 |
| 20260503214405 | 13 | 355 | 6.4 | 22.5 | 0.00 | 0.00 | 0.00 | 34 | 1011.1 |
| 20260503213902 | 13 | 283 | 8.0 | 22.5 | 0.00 | 0.00 | 0.00 | 33 | 1011.0 |
| 20260503213400 | 13 | 287 | 8.0 | 16.1 | 0.00 | 0.00 | 0.00 | 34 | 1010.9 |
| 20260503212856 | 12 | 291 | 6.4 | 9.7 | 0.00 | 0.00 | 0.00 | 34 | 1010.8 |
| 20260503212355 | 12 | 28 | 8.0 | 17.7 | 0.00 | 0.00 | 0.00 | 34 | 1011.0 |
| 20260503211851 | 12 | 353 | 11.3 | 16.1 | 0.00 | 0.00 | 0.00 | 35 | 1011.2 |
| 20260503211348 | 12 | 256 | 8.0 | 11.3 | 0.00 | 0.00 | 0.00 | 37 | 1011.0 |
| 20260503210843 | 13 | 320 | 8.0 | 14.5 | 0.00 | 0.00 | 0.00 | 34 | 1011.0 |
| 20260503210341 | 13 | 312 | 9.7 | 25.7 | 0.00 | 0.00 | 0.00 | 35 | 1010.9 |
| 20260503205836 | 13 | 29 | 14.5 | 20.9 | 0.00 | 0.00 | 0.00 | 35 | 1011.1 |
| 20260503205332 | 12 | 32 | 8.0 | 20.9 | 0.00 | 0.00 | 0.00 | 34 | 1011.0 |
| 20260503204829 | 12 | 290 | 8.0 | 12.9 | 0.00 | 0.00 | 0.00 | 35 | 1010.9 |
| 20260503204327 | 12 | 0 | 3.2 | 16.1 | 0.00 | 0.00 | 0.00 | 35 | 1011.1 |
| 20260503203824 | 13 | 309 | 6.4 | 20.9 | 0.00 | 0.00 | 0.00 | 35 | 1010.9 |
| 20260503203321 | 13 | 11 | 3.2 | 11.3 | 0.00 | 0.00 | 0.00 | 35 | 1010.9 |
| 20260503202818 | 13 | 285 | 6.4 | 12.9 | 0.00 | 0.00 | 0.00 | 36 | 1011.1 |
| 20260503202316 | 12 | 57 | 3.2 | 22.5 | 0.00 | 0.00 | 0.00 | 37 | 1011.0 |
| 20260503201814 | 13 | 294 | 6.4 | 11.3 | 0.00 | 0.00 | 0.00 | 37 | 1011.2 |
| 20260503201310 | 13 | 233 | 8.0 | 14.5 | 0.00 | 0.00 | 0.00 | 36 | 1011.0 |
| 20260503200808 | 12 | 93 | 1.6 | 4.8 | 0.00 | 0.00 | 0.00 | 37 | 1011.0 |
| 20260503200303 | 12 | 18 | 3.2 | 25.7 | 0.00 | 0.00 | 0.00 | 36 | 1010.9 |
| 20260503195801 | 12 | 284 | 4.8 | 12.9 | 0.00 | 0.00 | 0.00 | 36 | 1011.0 |
| 20260503195258 | 12 | 8 | 1.6 | 11.3 | 0.00 | 0.00 | 0.00 | 36 | 1011.0 |
| 20260503194755 | 12 | 249 | 6.4 | 9.7 | 0.00 | 0.00 | 0.00 | 37 | 1011.1 |
| 20260503194251 | 11 | 345 | 17.7 | 24.1 | 0.00 | 0.00 | 0.00 | 36 | 1011.3 |
| 20260503193747 | 12 | 234 | 6.4 | 20.9 | 0.00 | 0.00 | 0.00 | 35 | 1011.0 |
| 20260503193243 | 12 | 339 | 12.9 | 20.9 | 0.00 | 0.00 | 0.00 | 36 | 1011.2 |
| 20260503192739 | 11 | 180 | 9.7 | 24.1 | 0.00 | 0.00 | 0.00 | 36 | 1011.1 |
| 20260503192234 | 11 | 243 | 6.4 | 11.3 | 0.00 | 0.00 | 0.00 | 37 | 1011.2 |
| 20260503191732 | 11 | 346 | 1.6 | 11.3 | 0.00 | 0.00 | 0.00 | 40 | 1010.9 |
| 20260503191229 | 11 | 347 | 4.8 | 14.5 | 0.00 | 0.00 | 0.00 | 38 | 1011.2 |
| 20260503190726 | 12 | 54 | 6.4 | 12.9 | 0.00 | 0.00 | 0.00 | 36 | 1011.3 |
| 20260503190222 | 11 | 235 | 14.5 | 22.5 | 0.00 | 0.00 | 0.00 | 36 | 1011.1 |
| 20260503185719 | 12 | 232 | 16.1 | 17.7 | 0.00 | 0.00 | 0.00 | 36 | 1011.0 |
| 20260503185215 | 12 | 231 | 1.6 | 12.9 | 0.00 | 0.00 | 0.00 | 37 | 1011.0 |
| 20260503184709 | 12 | 293 | 6.4 | 11.3 | 0.00 | 0.00 | 0.00 | 40 | 1011.1 |
| 20260503184206 | 11 | 327 | 8.0 | 17.7 | 0.00 | 0.00 | 0.00 | 37 | 1011.2 |
| 20260503183703 | 11 | 6 | 8.0 | 17.7 | 0.00 | 0.00 | 0.00 | 37 | 1011.3 |
| 20260503183200 | 11 | 342 | 1.6 | 4.8 | 0.00 | 0.00 | 0.00 | 39 | 1011.2 |
| 20260503182658 | 11 | 256 | 8.0 | 17.7 | 0.00 | 0.00 | 0.00 | 38 | 1011.1 |
| 20260503182156 | 11 | 42 | 6.4 | 20.9 | 0.00 | 0.00 | 0.00 | 37 | 1011.2 |
| 20260503181652 | 11 | 261 | 16.1 | 22.5 | 0.00 | 0.00 | 0.00 | 37 | 1011.0 |
| 20260503181149 | 11 | 2 | 1.6 | 12.9 | 0.00 | 0.00 | 0.00 | 38 | 1010.8 |
| 20260503180646 | 12 | 262 | 8.0 | 11.3 | 0.00 | 0.00 | 0.00 | 37 | 1011.1 |
| 20260503180144 | 11 | 356 | 11.3 | 33.8 | 0.00 | 0.00 | 0.00 | 37 | 1011.0 |
| 20260503175641 | 11 | 207 | 9.7 | 24.1 | 0.00 | 0.00 | 0.00 | 37 | 1011.0 |
| 20260503175138 | 12 | 27 | 1.6 | 9.7 | 0.00 | 0.00 | 0.00 | 37 | 1010.8 |
| 20260503174634 | 11 | 334 | 9.7 | 17.7 | 0.00 | 0.00 | 0.00 | 35 | 1010.9 |
| 20260503174132 | 11 | 353 | 12.9 | 20.9 | 0.00 | 0.00 | 0.00 | 37 | 1011.0 |
| 20260503173627 | 10 | 12 | 11.3 | 22.5 | 0.00 | 0.00 | 0.00 | 37 | 1011.0 |
| 20260503173124 | 11 | 233 | 4.8 | 14.5 | 0.00 | 0.00 | 0.00 | 38 | 1011.2 |
| 20260503172620 | 10 | 237 | 8.0 | 11.3 | 0.00 | 0.00 | 0.00 | 42 | 1011.1 |
| 20260503172118 | 10 | 272 | 6.4 | 8.0 | 0.00 | 0.00 | 0.00 | 42 | 1011.1 |
| 20260503171614 | 10 | 3 | 6.4 | 17.7 | 0.00 | 0.00 | 0.00 | 42 | 1011.1 |
| 20260503171112 | 11 | 354 | 14.5 | 22.5 | 0.00 | 0.00 | 0.00 | 41 | 1011.3 |
| 20260503170609 | 10 | 211 | 3.2 | 4.8 | 0.00 | 0.00 | 0.00 | 43 | 1011.1 |
| 20260503170105 | 11 | 316 | 1.6 | 14.5 | 0.00 | 0.00 | 0.00 | 42 | 1011.3 |